When you browse on this site, cookies collect data to enhance your experience and personalize the content and advertising you see.
Visit our Privacy Policy to learn more. By continuing to use the site, you agree to this use of cookies and data.
  • în România
  • Lista ţărilor
  • Pe 7 zile
  • Temperatura apei
  • Meteo pe hartă
  • Widget-uri
  • user-avatar
    Intrare

    Meteo pe oră la Townsville

    Astăzi, 11 Decembrie, Miercuri

    Timp Temperatura Precipitaţii Vânt Presiune Umiditate
    00:00 +27°C° 0.1 mm 4 m/s 752 mmHg 86%
    01:00 +27°C° 0.1 mm 4 m/s 752 mmHg 86%
    02:00 +27°C° 0.1 mm 4 m/s 752 mmHg 88%
    03:00 +26°C° 0.1 mm 4 m/s 751 mmHg 90%
    04:00 +26°C° 0 mm 3 m/s 751 mmHg 91%
    05:00 +26°C° 0.1 mm 3 m/s 751 mmHg 87%
    06:00 +27°C° 0.1 mm 3 m/s 752 mmHg 83%
    07:00 +27°C° 0.1 mm 3 m/s 752 mmHg 79%
    08:00 +29°C° 0 mm 4 m/s 752 mmHg 72%
    09:00 +32°C° 0 mm 4 m/s 752 mmHg 65%
    10:00 +33°C° 0 mm 4 m/s 752 mmHg 60%
    11:00 +33°C° 0 mm 5 m/s 751 mmHg 58%
    12:00 +34°C° 0 mm 5 m/s 751 mmHg 55%
    13:00 +35°C° 0 mm 5 m/s 750 mmHg 53%
    14:00 +34°C° 0 mm 5 m/s 750 mmHg 54%
    15:00 +34°C° 0 mm 5 m/s 750 mmHg 56%
    16:00 +33°C° 0 mm 5 m/s 750 mmHg 58%
    17:00 +32°C° 0 mm 4 m/s 750 mmHg 64%
    18:00 +30°C° 0 mm 4 m/s 750 mmHg 70%
    19:00 +28°C° 0 mm 4 m/s 751 mmHg 76%
    20:00 +28°C° 0 mm 3 m/s 751 mmHg 80%
    21:00 +27°C° 0 mm 3 m/s 751 mmHg 84%
    22:00 +27°C° 0 mm 3 m/s 752 mmHg 87%
    23:00 +26°C° 0 mm 3 m/s 751 mmHg 88%

    Mâine, 12 Decembrie, Joi

    Timp Temperatura Precipitaţii Vânt Presiune Umiditate
    00:00 +26°C° 0 mm 3 m/s 751 mmHg 90%
    01:00 +26°C° 0 mm 3 m/s 751 mmHg 91%
    02:00 +25°C° 0 mm 3 m/s 750 mmHg 92%
    03:00 +25°C° 0 mm 3 m/s 750 mmHg 93%
    04:00 +25°C° 0 mm 3 m/s 750 mmHg 94%
    05:00 +26°C° 0 mm 3 m/s 750 mmHg 89%
    06:00 +27°C° 0 mm 2 m/s 751 mmHg 85%
    07:00 +28°C° 0 mm 2 m/s 751 mmHg 80%
    08:00 +29°C° 0 mm 3 m/s 751 mmHg 72%
    09:00 +32°C° 0 mm 4 m/s 751 mmHg 63%
    10:00 +33°C° 0 mm 5 m/s 751 mmHg 54%
    11:00 +34°C° 0 mm 5 m/s 751 mmHg 50%
    12:00 +35°C° 0 mm 5 m/s 750 mmHg 46%
    13:00 +35°C° 0 mm 5 m/s 750 mmHg 42%
    14:00 +35°C° 0 mm 5 m/s 749 mmHg 44%
    15:00 +34°C° 0 mm 4 m/s 749 mmHg 47%
    16:00 +34°C° 0 mm 4 m/s 749 mmHg 49%
    17:00 +32°C° 0 mm 4 m/s 749 mmHg 59%
    18:00 +29°C° 0 mm 3 m/s 750 mmHg 68%
    19:00 +27°C° 0 mm 3 m/s 750 mmHg 78%
    20:00 +27°C° 0 mm 3 m/s 751 mmHg 81%
    21:00 +26°C° 0 mm 3 m/s 751 mmHg 84%
    22:00 +26°C° 0 mm 3 m/s 752 mmHg 87%
    23:00 +26°C° 0 mm 2 m/s 751 mmHg 87%

    Poimâine, 13 Decembrie, Vineri

    Timp Temperatura Precipitaţii Vânt Presiune Umiditate
    00:00 +26°C° 0 mm 2 m/s 751 mmHg 87%
    01:00 +25°C° 0 mm 2 m/s 751 mmHg 87%
    02:00 +25°C° 0 mm 2 m/s 751 mmHg 88%
    03:00 +25°C° 0 mm 1 m/s 750 mmHg 88%
    04:00 +24°C° 0 mm 1 m/s 750 mmHg 89%
    05:00 +25°C° 0 mm 1 m/s 751 mmHg 83%
    06:00 +26°C° 0 mm 1 m/s 751 mmHg 78%
    07:00 +25°C° 0 mm 0 m/s 751 mmHg 73%
    08:00 +29°C° 0 mm 1 m/s 751 mmHg 63%
    09:00 +32°C° 0 mm 2 m/s 752 mmHg 53%
    10:00 +35°C° 0 mm 2 m/s 752 mmHg 43%
    11:00 +35°C° 0 mm 3 m/s 751 mmHg 42%
    12:00 +36°C° 0 mm 3 m/s 751 mmHg 41%
    13:00 +36°C° 0 mm 4 m/s 750 mmHg 40%
    14:00 +36°C° 0 mm 4 m/s 749 mmHg 42%
    15:00 +35°C° 0 mm 4 m/s 749 mmHg 43%
    16:00 +34°C° 0 mm 4 m/s 748 mmHg 44%
    17:00 +32°C° 0 mm 4 m/s 749 mmHg 53%
    18:00 +30°C° 0 mm 3 m/s 749 mmHg 62%
    19:00 +28°C° 0 mm 3 m/s 749 mmHg 71%
    20:00 +27°C° 0 mm 3 m/s 750 mmHg 75%
    21:00 +27°C° 0 mm 3 m/s 750 mmHg 79%
    22:00 +26°C° 0 mm 2 m/s 751 mmHg 84%
    23:00 +26°C° 0 mm 3 m/s 750 mmHg 85%

    14 Decembrie, Sâmbătă

    Timp Temperatura Precipitaţii Vânt Presiune Umiditate
    00:00 +26°C° 0 mm 3 m/s 750 mmHg 86%
    01:00 +26°C° 0 mm 3 m/s 749 mmHg 87%
    02:00 +25°C° 0 mm 3 m/s 749 mmHg 89%
    03:00 +25°C° 0 mm 3 m/s 749 mmHg 90%
    04:00 +25°C° 0 mm 3 m/s 749 mmHg 91%
    05:00 +26°C° 0 mm 2 m/s 750 mmHg 87%
    06:00 +27°C° 0 mm 2 m/s 750 mmHg 82%
    07:00 +28°C° 0 mm 2 m/s 751 mmHg 77%
    08:00 +30°C° 0 mm 2 m/s 751 mmHg 67%
    09:00 +33°C° 0 mm 3 m/s 751 mmHg 57%
    10:00 +35°C° 0 mm 3 m/s 751 mmHg 47%
    11:00 +35°C° 0 mm 3 m/s 750 mmHg 47%
    12:00 +35°C° 0 mm 4 m/s 749 mmHg 47%
    13:00 +35°C° 0 mm 4 m/s 749 mmHg 47%
    14:00 +35°C° 0 mm 4 m/s 748 mmHg 49%
    15:00 +34°C° 0 mm 4 m/s 748 mmHg 51%
    16:00 +34°C° 0 mm 4 m/s 747 mmHg 53%
    17:00 +32°C° 0 mm 4 m/s 747 mmHg 61%
    18:00 +29°C° 0 mm 4 m/s 748 mmHg 69%
    19:00 +28°C° 0 mm 3 m/s 748 mmHg 77%
    20:00 +28°C° 0 mm 4 m/s 749 mmHg 79%
    21:00 +28°C° 0 mm 4 m/s 749 mmHg 80%
    22:00 +28°C° 0 mm 4 m/s 750 mmHg 81%
    23:00 +28°C° 0 mm 3 m/s 750 mmHg 82%

    15 Decembrie, Duminică

    Timp Temperatura Precipitaţii Vânt Presiune Umiditate
    00:00 +28°C° 0 mm 3 m/s 749 mmHg 82%
    01:00 +27°C° 0 mm 2 m/s 749 mmHg 83%
    02:00 +27°C° 0 mm 2 m/s 749 mmHg 83%
    03:00 +27°C° 0 mm 3 m/s 749 mmHg 84%
    04:00 +27°C° 0 mm 3 m/s 749 mmHg 84%
    05:00 +28°C° 0 mm 3 m/s 749 mmHg 82%
    06:00 +28°C° 0 mm 4 m/s 750 mmHg 80%
    07:00 +29°C° 0 mm 4 m/s 750 mmHg 78%
    08:00 +30°C° 0 mm 4 m/s 750 mmHg 71%
    09:00 +32°C° 0 mm 4 m/s 750 mmHg 65%
    10:00 +34°C° 0 mm 4 m/s 750 mmHg 58%
    11:00 +34°C° 0 mm 4 m/s 750 mmHg 58%
    12:00 +34°C° 0 mm 5 m/s 750 mmHg 57%
    13:00 +34°C° 0 mm 5 m/s 749 mmHg 56%
    14:00 +34°C° 0 mm 5 m/s 749 mmHg 58%
    15:00 +33°C° 0 mm 5 m/s 749 mmHg 60%
    16:00 +32°C° 0 mm 5 m/s 748 mmHg 62%
    17:00 +30°C° 0 mm 5 m/s 749 mmHg 67%
    18:00 +29°C° 0 mm 4 m/s 749 mmHg 72%
    19:00 +28°C° 0 mm 4 m/s 750 mmHg 77%
    20:00 +28°C° 0 mm 3 m/s 751 mmHg 79%
    21:00 +27°C° 0 mm 2 m/s 751 mmHg 81%
    22:00 +27°C° 0 mm 2 m/s 752 mmHg 83%
    23:00 +27°C° 0 mm 2 m/s 751 mmHg 85%

    16 Decembrie, Luni

    Timp Temperatura Precipitaţii Vânt Presiune Umiditate
    00:00 +26°C° 0 mm 2 m/s 751 mmHg 87%
    01:00 +26°C° 0 mm 2 m/s 750 mmHg 89%
    02:00 +26°C° 0 mm 2 m/s 750 mmHg 88%
    03:00 +26°C° 0 mm 2 m/s 750 mmHg 88%
    04:00 +26°C° 0 mm 2 m/s 750 mmHg 88%
    05:00 +26°C° 0 mm 2 m/s 750 mmHg 83%
    06:00 +27°C° 0 mm 3 m/s 751 mmHg 78%
    07:00 +28°C° 0 mm 3 m/s 751 mmHg 73%
    08:00 +29°C° 0 mm 2 m/s 752 mmHg 67%
    09:00 +31°C° 0 mm 2 m/s 752 mmHg 60%
    10:00 +32°C° 0 mm 2 m/s 752 mmHg 53%
    11:00 +34°C° 0 mm 3 m/s 751 mmHg 50%
    12:00 +35°C° 0 mm 3 m/s 751 mmHg 48%
    13:00 +35°C° 0 mm 3 m/s 750 mmHg 45%
    14:00 +35°C° 0 mm 3 m/s 750 mmHg 47%
    15:00 +34°C° 0 mm 4 m/s 749 mmHg 49%
    16:00 +34°C° 0 mm 4 m/s 749 mmHg 52%
    17:00 +31°C° 0 mm 3 m/s 749 mmHg 59%
    18:00 +29°C° 0 mm 3 m/s 750 mmHg 66%
    19:00 +28°C° 0 mm 3 m/s 750 mmHg 73%
    20:00 +27°C° 0 mm 2 m/s 750 mmHg 76%
    21:00 +27°C° 0 mm 2 m/s 751 mmHg 79%
    22:00 +26°C° 0 mm 2 m/s 751 mmHg 82%
    23:00 +26°C° 0 mm 2 m/s 751 mmHg 84%
    Arată mai mult